| time (UTC) | temp F | wind direction | speed MPH | gust MPH | rain 1hr in | rain 24hr in | rain mn in | humidity % | barometer mb |
| 20260505050703 | 69 | 144 | 5.0 | 6.0 | 0.00 | 0.00 | 0.00 | 93 | 1008.5 |
| 20260505050201 | 69 | 146 | 4.0 | 6.0 | 0.00 | 0.00 | 0.00 | 93 | 1008.3 |
| 20260505041631 | 70 | 142 | 3.0 | 5.0 | 0.00 | 0.00 | 0.00 | 92 | 1008.6 |
| 20260505041128 | 70 | 143 | 2.0 | 3.0 | 0.00 | 0.00 | 0.00 | 91 | 1008.5 |
| 20260505040625 | 70 | 141 | 2.0 | 2.0 | 0.00 | 0.00 | 0.00 | 91 | 1008.5 |
| 20260505040122 | 71 | 147 | 3.0 | 5.0 | 0.00 | 0.00 | 0.00 | 91 | 1008.6 |
| 20260505035618 | 71 | 144 | 3.0 | 3.0 | 0.00 | 0.00 | 0.00 | 91 | 1008.6 |
| 20260505035115 | 71 | 143 | 3.0 | 3.0 | 0.00 | 0.00 | 0.00 | 90 | 1008.5 |
| 20260505034612 | 71 | 145 | 3.0 | 3.0 | 0.00 | 0.00 | 0.00 | 90 | 1008.4 |
| 20260505034108 | 71 | 145 | 4.0 | 6.0 | 0.00 | 0.00 | 0.00 | 90 | 1008.4 |
| 20260505033605 | 71 | 141 | 3.0 | 5.0 | 0.00 | 0.00 | 0.00 | 90 | 1008.4 |
| 20260505033104 | 71 | 142 | 2.0 | 2.0 | 0.00 | 0.00 | 0.00 | 90 | 1008.8 |
| 20260505032601 | 71 | 140 | 2.0 | 2.0 | 0.00 | 0.00 | 0.00 | 90 | 1008.5 |
| 20260505032057 | 71 | 142 | 3.0 | 3.0 | 0.00 | 0.00 | 0.00 | 89 | 1008.5 |
| 20260505031555 | 71 | 143 | 3.0 | 5.0 | 0.00 | 0.00 | 0.00 | 89 | 1008.3 |
| 20260505031051 | 71 | 141 | 3.0 | 3.0 | 0.00 | 0.00 | 0.00 | 89 | 1008.3 |
| 20260505030548 | 71 | 138 | 2.0 | 2.0 | 0.00 | 0.00 | 0.00 | 89 | 1008.7 |
| 20260505030044 | 71 | 138 | 3.0 | 3.0 | 0.00 | 0.00 | 0.00 | 89 | 1008.4 |
| 20260505025540 | 71 | 139 | 3.0 | 3.0 | 0.00 | 0.00 | 0.00 | 88 | 1008.4 |
| 20260505025039 | 71 | 138 | 3.0 | 3.0 | 0.00 | 0.00 | 0.00 | 88 | 1008.5 |
| 20260505024536 | 71 | 138 | 3.0 | 3.0 | 0.00 | 0.00 | 0.00 | 88 | 1008.7 |
| 20260505024033 | 71 | 137 | 2.0 | 3.0 | 0.00 | 0.00 | 0.00 | 88 | 1008.4 |
| 20260505023530 | 71 | 136 | 1.0 | 1.0 | 0.00 | 0.00 | 0.00 | 87 | 1008.3 |
| 20260505023027 | 72 | 137 | 2.0 | 2.0 | 0.00 | 0.00 | 0.00 | 87 | 1008.3 |
| 20260505022525 | 72 | 137 | 2.0 | 2.0 | 0.00 | 0.00 | 0.00 | 86 | 1008.4 |
| 20260505022022 | 72 | 136 | 1.0 | 2.0 | 0.00 | 0.00 | 0.00 | 86 | 1008.4 |
| 20260505021518 | 72 | 137 | 3.0 | 5.0 | 0.00 | 0.00 | 0.00 | 86 | 1008.4 |
| 20260505021014 | 72 | 135 | 1.0 | 2.0 | 0.00 | 0.00 | 0.00 | 85 | 1008.1 |
| 20260505020509 | 73 | 135 | 1.0 | 1.0 | 0.00 | 0.00 | 0.00 | 85 | 1008.1 |
| 20260505020006 | 73 | 137 | 0.0 | 1.0 | 0.00 | 0.00 | 0.00 | 85 | 1007.9 |
| 20260505015503 | 73 | 135 | 3.0 | 3.0 | 0.00 | 0.00 | 0.00 | 84 | 1008.2 |
| 20260505015000 | 73 | 134 | 1.0 | 1.0 | 0.00 | 0.00 | 0.00 | 84 | 1008.1 |
| 20260505014457 | 73 | 134 | 1.0 | 2.0 | 0.00 | 0.00 | 0.00 | 83 | 1007.9 |
| 20260505013954 | 73 | 137 | 3.0 | 5.0 | 0.00 | 0.00 | 0.00 | 83 | 1007.9 |
| 20260505013451 | 74 | 142 | 2.0 | 2.0 | 0.00 | 0.00 | 0.00 | 82 | 1008.0 |
| 20260505012949 | 74 | 132 | 3.0 | 3.0 | 0.00 | 0.00 | 0.00 | 82 | 1008.2 |
| 20260505012447 | 74 | 132 | 2.0 | 2.0 | 0.00 | 0.00 | 0.00 | 81 | 1008.1 |
| 20260505011943 | 74 | 144 | 3.0 | 3.0 | 0.00 | 0.00 | 0.00 | 81 | 1008.2 |
| 20260505011439 | 75 | 130 | 4.0 | 6.0 | 0.00 | 0.00 | 0.00 | 80 | 1008.1 |
| 20260505010936 | 75 | 132 | 1.0 | 2.0 | 0.00 | 0.00 | 0.00 | 80 | 1007.8 |
| 20260505010432 | 75 | 130 | 3.0 | 3.0 | 0.00 | 0.00 | 0.00 | 77 | 1008.1 |
| 20260505005928 | 76 | 136 | 5.0 | 7.0 | 0.00 | 0.00 | 0.00 | 75 | 1007.9 |
| 20260505005425 | 76 | 145 | 3.0 | 3.0 | 0.00 | 0.00 | 0.00 | 74 | 1008.1 |
| 20260505004923 | 76 | 145 | 3.0 | 3.0 | 0.00 | 0.00 | 0.00 | 73 | 1007.8 |
| 20260505004419 | 76 | 131 | 3.0 | 5.0 | 0.00 | 0.00 | 0.00 | 73 | 1007.8 |
| 20260505003916 | 77 | 146 | 4.0 | 6.0 | 0.00 | 0.00 | 0.00 | 72 | 1007.9 |
| 20260505003413 | 77 | 131 | 4.0 | 5.0 | 0.00 | 0.00 | 0.00 | 71 | 1007.8 |
| 20260505002909 | 77 | 130 | 4.0 | 5.0 | 0.00 | 0.00 | 0.00 | 72 | 1007.8 |
| 20260505002406 | 77 | 148 | 4.0 | 5.0 | 0.00 | 0.00 | 0.00 | 71 | 1007.7 |
| 20260505001904 | 77 | 143 | 5.0 | 6.0 | 0.00 | 0.00 | 0.00 | 71 | 1007.8 |
| 20260505001401 | 77 | 148 | 4.0 | 5.0 | 0.00 | 0.00 | 0.00 | 71 | 1007.8 |
| 20260505000859 | 77 | 148 | 3.0 | 8.0 | 0.00 | 0.00 | 0.00 | 70 | 1007.7 |
| 20260505000358 | 77 | 147 | 5.0 | 7.0 | 0.00 | 0.00 | 0.00 | 70 | 1007.8 |
| 20260504235852 | 78 | 134 | 4.0 | 6.0 | 0.00 | 0.00 | 0.00 | 70 | 1008.0 |
| 20260504235350 | 78 | 147 | 5.0 | 6.0 | 0.00 | 0.00 | 0.00 | 69 | 1008.1 |
| 20260504234846 | 78 | 145 | 4.0 | 5.0 | 0.00 | 0.00 | 0.00 | 69 | 1007.9 |
| 20260504234344 | 79 | 146 | 6.0 | 7.0 | 0.00 | 0.00 | 0.00 | 68 | 1008.1 |
| 20260504233840 | 79 | 137 | 4.0 | 7.0 | 0.00 | 0.00 | 0.00 | 69 | 1008.1 |
| 20260504233336 | 78 | 144 | 3.0 | 5.0 | 0.00 | 0.00 | 0.00 | 69 | 1008.5 |
| 20260504232833 | 78 | 144 | 3.0 | 3.0 | 0.00 | 0.00 | 0.00 | 69 | 1008.7 |
| 20260504232330 | 78 | 145 | 4.0 | 5.0 | 0.00 | 0.00 | 0.00 | 70 | 1008.8 |
| 20260504231827 | 78 | 145 | 5.0 | 6.0 | 0.00 | 0.00 | 0.00 | 69 | 1008.4 |
| 20260504231323 | 79 | 146 | 6.0 | 7.0 | 0.00 | 0.00 | 0.00 | 68 | 1008.7 |
| 20260504230819 | 80 | 143 | 3.0 | 5.0 | 0.00 | 0.00 | 0.00 | 67 | 1008.8 |
| 20260504230318 | 78 | 132 | 3.0 | 5.0 | 0.00 | 0.00 | 0.00 | 68 | 1008.6 |
| 20260504225816 | 79 | 144 | 3.0 | 3.0 | 0.00 | 0.00 | 0.00 | 67 | 1008.6 |
| 20260504225312 | 80 | 130 | 4.0 | 5.0 | 0.00 | 0.00 | 0.00 | 67 | 1008.9 |
| 20260504224809 | 79 | 136 | 5.0 | 8.0 | 0.00 | 0.00 | 0.00 | 66 | 1008.8 |
| 20260504224306 | 79 | 143 | 6.0 | 9.0 | 0.00 | 0.00 | 0.00 | 66 | 1009.0 |
| 20260504223803 | 79 | 143 | 3.0 | 6.0 | 0.00 | 0.00 | 0.00 | 67 | 1009.1 |
| 20260504223258 | 79 | 141 | 5.0 | 8.0 | 0.00 | 0.00 | 0.00 | 66 | 1009.1 |
| 20260504222755 | 80 | 132 | 3.0 | 5.0 | 0.00 | 0.00 | 0.00 | 67 | 1009.2 |
| 20260504222252 | 80 | 142 | 2.0 | 3.0 | 0.00 | 0.00 | 0.00 | 66 | 1009.2 |
| 20260504221750 | 80 | 144 | 6.0 | 8.0 | 0.00 | 0.00 | 0.00 | 66 | 1009.1 |
| 20260504221247 | 80 | 143 | 3.0 | 5.0 | 0.00 | 0.00 | 0.00 | 66 | 1009.0 |
| 20260504220743 | 80 | 134 | 4.0 | 7.0 | 0.00 | 0.00 | 0.00 | 66 | 1009.2 |
| 20260504220241 | 79 | 132 | 1.0 | 2.0 | 0.00 | 0.00 | 0.00 | 68 | 1009.1 |
| 20260504215738 | 79 | 132 | 4.0 | 6.0 | 0.00 | 0.00 | 0.00 | 67 | 1009.0 |
| 20260504215234 | 80 | 142 | 4.0 | 5.0 | 0.00 | 0.00 | 0.00 | 67 | 1009.1 |
| 20260504214730 | 79 | 140 | 4.0 | 6.0 | 0.00 | 0.00 | 0.00 | 68 | 1009.2 |
| 20260504214227 | 80 | 143 | 3.0 | 5.0 | 0.00 | 0.00 | 0.00 | 67 | 1009.1 |
| 20260504213724 | 79 | 143 | 7.0 | 8.0 | 0.00 | 0.00 | 0.00 | 67 | 1009.1 |
| 20260504213220 | 78 | 143 | 4.0 | 5.0 | 0.00 | 0.00 | 0.00 | 69 | 1009.2 |
| 20260504212717 | 78 | 134 | 4.0 | 5.0 | 0.00 | 0.00 | 0.00 | 68 | 1009.6 |
| 20260504212214 | 79 | 130 | 5.0 | 7.0 | 0.00 | 0.00 | 0.00 | 67 | 1009.3 |
| 20260504211711 | 79 | 143 | 4.0 | 6.0 | 0.00 | 0.00 | 0.00 | 67 | 1009.2 |
| 20260504211207 | 79 | 140 | 4.0 | 6.0 | 0.00 | 0.00 | 0.00 | 68 | 1009.5 |
| 20260504210705 | 79 | 141 | 7.0 | 10.0 | 0.00 | 0.00 | 0.00 | 68 | 1009.6 |
| 20260504210202 | 80 | 140 | 3.0 | 3.0 | 0.00 | 0.00 | 0.00 | 67 | 1009.6 |
| 20260504205659 | 79 | 141 | 6.0 | 10.0 | 0.00 | 0.00 | 0.00 | 68 | 1010.3 |
| 20260504205155 | 79 | 139 | 5.0 | 7.0 | 0.00 | 0.00 | 0.00 | 68 | 1010.2 |
| 20260504204654 | 79 | 138 | 6.0 | 9.0 | 0.00 | 0.00 | 0.00 | 67 | 1010.0 |
| 20260504204153 | 80 | 138 | 2.0 | 3.0 | 0.00 | 0.00 | 0.00 | 67 | 1010.1 |
| 20260504203651 | 79 | 141 | 4.0 | 5.0 | 0.00 | 0.00 | 0.00 | 67 | 1010.3 |
| 20260504203149 | 79 | 140 | 4.0 | 5.0 | 0.00 | 0.00 | 0.00 | 67 | 1010.5 |
| 20260504202649 | 80 | 139 | 5.0 | 8.0 | 0.00 | 0.00 | 0.00 | 66 | 1010.4 |
| 20260504202146 | 79 | 141 | 6.0 | 8.0 | 0.00 | 0.00 | 0.00 | 66 | 1010.7 |
| 20260504201643 | 79 | 140 | 4.0 | 6.0 | 0.00 | 0.00 | 0.00 | 66 | 1010.6 |
| 20260504201141 | 79 | 141 | 5.0 | 6.0 | 0.00 | 0.00 | 0.00 | 65 | 1010.4 |
| 20260504200637 | 80 | 140 | 5.0 | 6.0 | 0.00 | 0.00 | 0.00 | 66 | 1010.6 |
| 20260504200134 | 80 | 140 | 5.0 | 7.0 | 0.00 | 0.00 | 0.00 | 65 | 1010.7 |
| 20260504195630 | 80 | 139 | 5.0 | 7.0 | 0.00 | 0.00 | 0.00 | 64 | 1010.9 |
| 20260504195126 | 79 | 137 | 4.0 | 5.0 | 0.00 | 0.00 | 0.00 | 66 | 1010.8 |
| 20260504194623 | 81 | 140 | 4.0 | 6.0 | 0.00 | 0.00 | 0.00 | 64 | 1011.0 |
| 20260504194119 | 80 | 140 | 7.0 | 9.0 | 0.00 | 0.00 | 0.00 | 65 | 1010.9 |
| 20260504193615 | 80 | 140 | 4.0 | 6.0 | 0.00 | 0.00 | 0.00 | 65 | 1010.8 |
| 20260504193114 | 79 | 138 | 4.0 | 6.0 | 0.00 | 0.00 | 0.00 | 65 | 1011.0 |
| 20260504192612 | 80 | 140 | 3.0 | 3.0 | 0.00 | 0.00 | 0.00 | 64 | 1011.0 |
| 20260504192110 | 80 | 138 | 4.0 | 5.0 | 0.00 | 0.00 | 0.00 | 65 | 1011.4 |
| 20260504191608 | 81 | 140 | 6.0 | 8.0 | 0.00 | 0.00 | 0.00 | 63 | 1011.1 |
| 20260504191104 | 81 | 139 | 5.0 | 7.0 | 0.00 | 0.00 | 0.00 | 64 | 1011.4 |
| 20260504190600 | 80 | 133 | 2.0 | 3.0 | 0.00 | 0.00 | 0.00 | 63 | 1011.2 |
| 20260504190056 | 80 | 138 | 2.0 | 5.0 | 0.00 | 0.00 | 0.00 | 63 | 1011.0 |
| 20260504185553 | 82 | 137 | 7.0 | 11.0 | 0.00 | 0.00 | 0.00 | 61 | 1011.3 |
| 20260504185050 | 80 | 130 | 6.0 | 8.0 | 0.00 | 0.00 | 0.00 | 62 | 1011.4 |
| 20260504184545 | 80 | 139 | 6.0 | 8.0 | 0.00 | 0.00 | 0.00 | 63 | 1011.6 |
| 20260504184041 | 81 | 139 | 4.0 | 6.0 | 0.00 | 0.00 | 0.00 | 62 | 1011.6 |
| 20260504183538 | 80 | 140 | 8.0 | 11.0 | 0.00 | 0.00 | 0.00 | 62 | 1011.6 |
| 20260504183036 | 80 | 140 | 5.0 | 10.0 | 0.00 | 0.00 | 0.00 | 65 | 1011.8 |
| 20260504182533 | 79 | 139 | 6.0 | 10.0 | 0.00 | 0.00 | 0.00 | 63 | 1011.8 |
| 20260504182030 | 80 | 132 | 5.0 | 8.0 | 0.00 | 0.00 | 0.00 | 63 | 1011.9 |
| 20260504181527 | 79 | 139 | 4.0 | 7.0 | 0.00 | 0.00 | 0.00 | 65 | 1011.8 |
| 20260504181026 | 78 | 139 | 4.0 | 6.0 | 0.00 | 0.00 | 0.00 | 67 | 1012.0 |
| 20260504180524 | 78 | 138 | 5.0 | 9.0 | 0.00 | 0.00 | 0.00 | 66 | 1011.9 |
| 20260504180023 | 77 | 137 | 3.0 | 3.0 | 0.00 | 0.00 | 0.00 | 68 | 1011.9 |
| 20260504175519 | 79 | 138 | 3.0 | 5.0 | 0.00 | 0.00 | 0.00 | 66 | 1012.3 |
| 20260504175016 | 79 | 132 | 6.0 | 9.0 | 0.00 | 0.00 | 0.00 | 64 | 1012.3 |
| 20260504174514 | 78 | 134 | 3.0 | 5.0 | 0.00 | 0.00 | 0.00 | 68 | 1012.3 |
| 20260504174011 | 77 | 133 | 7.0 | 8.0 | 0.00 | 0.00 | 0.00 | 66 | 1012.6 |
| 20260504173507 | 76 | 137 | 3.0 | 5.0 | 0.00 | 0.00 | 0.00 | 67 | 1012.4 |
| 20260504173005 | 76 | 137 | 5.0 | 7.0 | 0.00 | 0.00 | 0.00 | 69 | 1012.2 |
| 20260504172501 | 76 | 137 | 5.0 | 7.0 | 0.00 | 0.00 | 0.00 | 70 | 1012.4 |
| 20260504171957 | 77 | 137 | 4.0 | 5.0 | 0.00 | 0.00 | 0.00 | 69 | 1012.8 |
| 20260504171454 | 75 | 133 | 4.0 | 6.0 | 0.00 | 0.00 | 0.00 | 72 | 1012.6 |
| 20260504170951 | 74 | 137 | 5.0 | 7.0 | 0.00 | 0.00 | 0.00 | 73 | 1013.1 |
| 20260504170447 | 74 | 137 | 4.0 | 5.0 | 0.00 | 0.00 | 0.00 | 73 | 1012.9 |
| 20260504160407 | 71 | 137 | 5.0 | 9.0 | 0.00 | 0.00 | 0.00 | 79 | 1013.3 |
| 20260504150831 | 67 | 136 | 5.0 | 8.0 | 0.00 | 0.00 | 0.00 | 86 | 1013.8 |
| 20260504150328 | 67 | 136 | 7.0 | 8.0 | 0.00 | 0.00 | 0.00 | 86 | 1013.8 |
| 20260504141258 | 65 | 135 | 5.0 | 7.0 | 0.00 | 0.00 | 0.00 | 85 | 1013.6 |
| 20260504140754 | 65 | 135 | 5.0 | 6.0 | 0.00 | 0.00 | 0.00 | 84 | 1013.5 |
| 20260504140250 | 65 | 135 | 4.0 | 7.0 | 0.00 | 0.00 | 0.00 | 85 | 1013.5 |
| 20260504130719 | 61 | 135 | 1.0 | 2.0 | 0.00 | 0.00 | 0.00 | 90 | 1013.8 |
| 20260504130215 | 61 | 135 | 2.0 | 2.0 | 0.00 | 0.00 | 0.00 | 91 | 1013.6 |
| 20260504120139 | 59 | 133 | 1.0 | 2.0 | 0.00 | 0.00 | 0.00 | 93 | 1013.4 |
| 20260504110606 | 59 | 133 | 0.0 | 0.0 | 0.00 | 0.00 | 0.00 | 91 | 1013.5 |
| 20260504100528 | 59 | 134 | 0.0 | 1.0 | 0.00 | 0.00 | 0.00 | 91 | 1013.4 |
| 20260504081921 | 61 | 90 | 1.0 | 1.0 | 0.00 | 0.00 | 0.00 | 87 | 1014.3 |
| 20260504081418 | 61 | 81 | 0.0 | 1.0 | 0.00 | 0.00 | 0.00 | 86 | 1014.2 |
| 20260504080914 | 61 | 90 | 1.0 | 1.0 | 0.00 | 0.00 | 0.00 | 86 | 1014.0 |
| 20260504080411 | 61 | 83 | 1.0 | 1.0 | 0.00 | 0.00 | 0.00 | 86 | 1014.1 |
| 20260504070339 | 63 | 142 | 4.0 | 6.0 | 0.00 | 0.00 | 0.00 | 82 | 1015.0 |